Terminal Aerodrome Forecast
Issued by NWS Melbourne, FL

Home | Current Version | Previous Version | Text Only | Print | Product List | Glossary On
Versions: 1 2 3 4 5 6 7 8 9 10 11 12 13 14 15 16 17 18 19 20 21 22 23 24
000
FTUS42 KMLB 311100 RRA
TAFMCO
TAF
KMCO 311145Z 3112/0112 35007KT P6SM SCT020 BKN070
     FM311500 30009KT P6SM SCT030 BKN080
     FM311900 31011KT P6SM SCT035 SCT080
     FM010000 29009KT P6SM FEW030 SCT250=

USA.gov is the U.S. government's official web portal to all federal, state and local government web resources and services.